Tracking 18784 objects as of 17-August-2017
HD Live streaming from Space Station
objects crossing your sky now

FLOCK 2K 19

Track FLOCK 2K 19 now!
10-day predictions
FLOCK 2K 19 is classified as:


NORAD ID: 42886
Int'l Code: 2017-042BP
Perigee: 463.1 km
Apogee: 484.1 km
Inclination: 97.0 °
Period: 93.9 minutes
Semi major axis: 6844 km
RCS: Unknown
Launch date: July 14, 2017
Source: United States (US)
Launch site: TYURATAM MISSILE AND SPACE COMPLEX (TTMTR)
Your satellite tracking list
Your tracking list is empty





NASA's NSSDC Master Catalog

Two Line Element Set (TLE):
1 42886U 17042BP  17229.21241314  .00001913  00000-0  61773-4 0  9993
2 42886  96.9998 136.4239 0015347 115.0112 245.2727 15.33151513  5001
Source of the keplerian elements: AFSPC